EWG2481 EGPH-EDDS

Flight info

Callsign EWG2481
Flight time 1h 41m
Altitude 25000
Route TLA Y96 OTBUN/N0448F370 DCT ERKIT N110 DOLAS DCT NAVPI DCT DODEN DCT TABUM DCT FOLWU DCT UBENO N850 KRH T128 BADSO BADSO2A
Aircraft A320/M-SDE3FGHIRWY/LB1

Departure

Time 2026-04-25 11:47
Airport Edinburgh Airport (EGPH)

Arrival

Time 2026-04-25 13:28
Airport Stuttgart Airport (EDDS)
Time Latitude Longitude Altitude Speed Heading
2026-04-25 10:46 55.94921 -3.36430 116 ft 0 kts 148°
2026-04-25 11:10 55.94919 -3.36428 117 ft 0 kts 148°
2026-04-25 11:32 55.94932 -3.36442 134 ft 4 kts 149°
2026-04-25 11:33 55.94951 -3.36463 111 ft 4 kts 152°
2026-04-25 11:33 55.94974 -3.36476 112 ft 4 kts 192°
2026-04-25 11:33 55.94994 -3.36454 112 ft 3 kts 237°
2026-04-25 11:33 55.94996 -3.36448 112 ft 0 kts 238°
2026-04-25 11:38 55.94996 -3.36449 116 ft 0 kts 238°
2026-04-25 11:38 55.94994 -3.36456 116 ft 1 kts 238°
2026-04-25 11:39 55.94986 -3.36479 112 ft 3 kts 238°
2026-04-25 11:39 55.94963 -3.36548 112 ft 7 kts 239°
2026-04-25 11:39 55.94939 -3.36617 113 ft 6 kts 239°
2026-04-25 11:39 55.94913 -3.36693 115 ft 7 kts 239°
2026-04-25 11:40 55.94894 -3.36766 116 ft 6 kts 261°
2026-04-25 11:40 55.94912 -3.36818 114 ft 5 kts 317°
2026-04-25 11:40 55.94928 -3.36876 113 ft 7 kts 271°
2026-04-25 11:40 55.94896 -3.36983 114 ft 12 kts 238°
2026-04-25 11:41 55.94843 -3.37139 114 ft 17 kts 239°
2026-04-25 11:41 55.94776 -3.37337 115 ft 19 kts 239°
2026-04-25 11:41 55.94712 -3.37529 115 ft 17 kts 238°
2026-04-25 11:41 55.94652 -3.37704 114 ft 16 kts 239°
2026-04-25 11:42 55.94597 -3.37866 113 ft 15 kts 238°
2026-04-25 11:42 55.94546 -3.38014 114 ft 13 kts 239°
2026-04-25 11:42 55.94500 -3.38151 113 ft 14 kts 239°
2026-04-25 11:42 55.94439 -3.38330 113 ft 19 kts 239°
2026-04-25 11:43 55.94374 -3.38523 113 ft 17 kts 239°
2026-04-25 11:43 55.94315 -3.38697 113 ft 14 kts 239°
2026-04-25 11:43 55.94281 -3.38803 114 ft 8 kts 249°
2026-04-25 11:43 55.94290 -3.38866 115 ft 4 kts 314°
2026-04-25 11:44 55.94313 -3.38894 114 ft 4 kts 328°
2026-04-25 11:44 55.94332 -3.38915 115 ft 3 kts 329°
2026-04-25 11:44 55.94358 -3.38943 113 ft 5 kts 329°
2026-04-25 11:44 55.94393 -3.38981 114 ft 6 kts 330°
2026-04-25 11:45 55.94420 -3.38958 113 ft 4 kts 52°
2026-04-25 11:45 55.94427 -3.38937 114 ft 0 kts 59°
2026-04-25 11:46 55.94437 -3.38907 114 ft 12 kts 59°
2026-04-25 11:46 55.94602 -3.38429 111 ft 81 kts 58°
2026-04-25 11:46 55.95000 -3.37257 112 ft 138 kts 58°
2026-04-25 11:46 55.95551 -3.35671 523 ft 152 kts 58°
2026-04-25 11:47 55.96149 -3.34130 1278 ft 154 kts 49°
2026-04-25 11:47 55.96984 -3.32717 1714 ft 175 kts 46°
2026-04-25 11:47 55.97920 -3.31212 2265 ft 186 kts 44°
2026-04-25 11:47 55.98888 -3.29665 2853 ft 192 kts 43°
2026-04-25 11:48 55.99902 -3.28022 3363 ft 203 kts 41°
2026-04-25 11:48 56.01026 -3.26220 3640 ft 230 kts 41°
2026-04-25 11:48 56.02274 -3.24207 4058 ft 254 kts 40°
2026-04-25 11:48 56.03629 -3.22020 4702 ft 268 kts 41°
2026-04-25 11:49 56.04836 -3.19441 5516 ft 277 kts 64°
2026-04-25 11:49 56.05172 -3.16025 6352 ft 286 kts 92°
2026-04-25 11:49 56.04979 -3.12458 7185 ft 291 kts 99°
2026-04-25 11:49 56.04255 -3.09081 7994 ft 295 kts 124°
2026-04-25 11:50 56.02864 -3.06455 8816 ft 297 kts 144°
2026-04-25 11:50 56.01185 -3.04276 9669 ft 300 kts 148°
2026-04-25 11:50 55.99327 -3.02540 10437 ft 304 kts 156°
2026-04-25 11:50 55.97343 -3.00856 10724 ft 328 kts 156°
2026-04-25 11:51 55.95204 -2.99056 10946 ft 352 kts 156°
2026-04-25 11:51 55.92917 -2.97136 11160 ft 372 kts 156°
2026-04-25 11:51 55.90546 -2.95145 11730 ft 380 kts 156°
2026-04-25 11:51 55.88140 -2.93117 12449 ft 384 kts 155°
2026-04-25 11:52 55.85742 -2.91095 13131 ft 389 kts 156°
2026-04-25 11:52 55.83289 -2.89029 13707 ft 391 kts 155°
2026-04-25 11:52 55.80818 -2.86948 14221 ft 394 kts 156°
2026-04-25 11:52 55.78329 -2.84858 14701 ft 397 kts 156°
2026-04-25 11:53 55.75828 -2.82765 15189 ft 399 kts 156°
2026-04-25 11:53 55.73311 -2.80663 15676 ft 399 kts 156°
2026-04-25 11:53 55.70789 -2.78564 15981 ft 401 kts 156°
2026-04-25 11:53 55.68251 -2.76457 16270 ft 405 kts 156°
2026-04-25 11:54 55.65698 -2.74332 16878 ft 407 kts 156°
2026-04-25 11:54 55.63129 -2.72191 17472 ft 409 kts 156°
2026-04-25 11:54 55.57978 -2.67916 18637 ft 414 kts 156°
2026-04-25 11:55 55.55360 -2.65749 19126 ft 417 kts 156°
2026-04-25 11:55 55.52725 -2.63572 19590 ft 420 kts 156°
2026-04-25 11:55 55.50063 -2.61375 20041 ft 423 kts 156°
2026-04-25 11:55 55.47391 -2.59172 20569 ft 424 kts 156°
2026-04-25 11:56 55.44713 -2.56967 21043 ft 427 kts 156°
2026-04-25 11:56 55.42015 -2.54754 21485 ft 430 kts 156°
2026-04-25 11:56 55.39293 -2.52523 21914 ft 433 kts 156°
2026-04-25 11:56 55.36558 -2.50283 22353 ft 436 kts 156°
2026-04-25 11:57 55.33834 -2.48060 22807 ft 437 kts 156°
2026-04-25 11:57 55.31070 -2.45807 23232 ft 440 kts 155°
2026-04-25 11:57 55.28322 -2.43398 23594 ft 444 kts 149°
2026-04-25 11:57 55.25781 -2.40324 24009 ft 445 kts 142°
2026-04-25 11:58 55.23319 -2.37023 24368 ft 446 kts 143°
2026-04-25 11:58 55.20847 -2.33727 24787 ft 447 kts 143°
2026-04-25 11:58 55.18371 -2.30435 25145 ft 448 kts 143°
2026-04-25 11:58 55.15881 -2.27133 25492 ft 450 kts 143°
2026-04-25 11:59 55.13414 -2.23873 25826 ft 452 kts 143°
2026-04-25 11:59 55.10899 -2.20558 26155 ft 453 kts 143°
2026-04-25 11:59 55.08373 -2.17235 26419 ft 458 kts 144°
2026-04-25 12:00 55.03241 -2.10490 26907 ft 464 kts 143°
2026-04-25 12:00 55.00657 -2.07104 27221 ft 466 kts 143°
2026-04-25 12:00 54.95455 -2.00315 27813 ft 469 kts 144°
2026-04-25 12:01 54.92874 -1.96950 28123 ft 470 kts 144°
2026-04-25 12:01 54.90267 -1.93552 28581 ft 468 kts 144°
2026-04-25 12:01 54.87668 -1.90166 29033 ft 466 kts 144°
2026-04-25 12:01 54.85077 -1.86799 29468 ft 465 kts 144°
2026-04-25 12:02 54.79914 -1.80112 30267 ft 464 kts 145°
2026-04-25 12:02 54.77320 -1.76759 30589 ft 463 kts 145°
2026-04-25 12:02 54.74737 -1.73425 30931 ft 463 kts 145°
2026-04-25 12:03 54.72163 -1.70103 31320 ft 460 kts 145°
2026-04-25 12:03 54.69599 -1.66803 31738 ft 458 kts 145°
2026-04-25 12:03 54.67079 -1.63571 32100 ft 457 kts 145°
2026-04-25 12:03 54.64531 -1.60311 32419 ft 457 kts 145°
2026-04-25 12:04 54.61969 -1.57033 32642 ft 459 kts 145°
2026-04-25 12:04 54.59402 -1.53753 32931 ft 459 kts 145°
2026-04-25 12:04 54.56836 -1.50477 33247 ft 459 kts 145°
2026-04-25 12:04 54.54269 -1.47202 33579 ft 459 kts 145°
2026-04-25 12:05 54.51705 -1.43941 33919 ft 458 kts 145°
2026-04-25 12:05 54.49142 -1.40691 34261 ft 457 kts 145°
2026-04-25 12:05 54.46580 -1.37449 34584 ft 456 kts 145°
2026-04-25 12:05 54.44028 -1.34227 34897 ft 454 kts 145°
2026-04-25 12:06 54.41517 -1.31055 35193 ft 454 kts 145°
2026-04-25 12:06 54.38978 -1.27852 35457 ft 453 kts 145°
2026-04-25 12:06 54.36438 -1.24651 35716 ft 453 kts 145°
2026-04-25 12:06 54.33900 -1.21462 35976 ft 452 kts 145°
2026-04-25 12:07 54.31361 -1.18280 36236 ft 452 kts 145°
2026-04-25 12:07 54.28828 -1.15097 36458 ft 451 kts 145°
2026-04-25 12:07 54.26301 -1.11922 36703 ft 451 kts 145°
2026-04-25 12:07 54.23772 -1.08756 36943 ft 450 kts 145°
2026-04-25 12:08 54.21277 -1.05642 37153 ft 450 kts 145°
2026-04-25 12:08 54.18742 -1.02489 37234 ft 453 kts 145°
2026-04-25 12:08 54.13626 -0.96142 37217 ft 455 kts 145°
2026-04-25 12:09 54.08504 -0.89793 37214 ft 455 kts 145°
2026-04-25 12:09 54.03374 -0.83457 37214 ft 456 kts 145°
2026-04-25 12:10 53.98197 -0.77250 37214 ft 455 kts 147°
2026-04-25 12:10 53.93006 -0.71227 37215 ft 455 kts 147°
2026-04-25 12:11 53.87782 -0.65168 37216 ft 455 kts 147°
2026-04-25 12:11 53.82572 -0.59108 37223 ft 455 kts 147°
2026-04-25 12:12 53.78241 -0.54069 37235 ft 455 kts 147°
2026-04-25 12:12 53.72180 -0.47042 37232 ft 455 kts 147°
2026-04-25 12:13 53.66960 -0.41010 37247 ft 455 kts 147°
2026-04-25 12:13 53.61737 -0.34993 37251 ft 455 kts 147°
2026-04-25 12:14 53.56850 -0.28237 37253 ft 457 kts 133°
2026-04-25 12:14 53.52978 -0.19821 37253 ft 459 kts 128°
2026-04-25 12:15 53.49136 -0.11269 37245 ft 459 kts 128°
2026-04-25 12:15 53.45277 -0.02736 37244 ft 459 kts 128°
2026-04-25 12:16 53.41412 0.05807 37223 ft 460 kts 128°
2026-04-25 12:16 53.37543 0.14331 37225 ft 460 kts 128°
2026-04-25 12:17 53.33660 0.22859 37230 ft 461 kts 128°
2026-04-25 12:17 53.29788 0.31316 37234 ft 461 kts 129°
2026-04-25 12:18 53.25890 0.39815 37236 ft 461 kts 129°
2026-04-25 12:18 53.21990 0.48294 37237 ft 461 kts 129°
2026-04-25 12:19 53.16143 0.60946 37232 ft 461 kts 129°
2026-04-25 12:20 53.12213 0.69396 37234 ft 462 kts 129°
2026-04-25 12:20 53.08277 0.77849 37234 ft 462 kts 129°
2026-04-25 12:21 53.04344 0.86289 37235 ft 462 kts 129°
2026-04-25 12:21 53.00393 0.94706 37229 ft 462 kts 129°
2026-04-25 12:22 52.97061 1.03715 37223 ft 464 kts 113°
2026-04-25 12:22 52.94796 1.13747 37215 ft 465 kts 111°
2026-04-25 12:23 52.92519 1.23781 37211 ft 465 kts 111°
2026-04-25 12:23 52.90222 1.33807 37214 ft 466 kts 111°
2026-04-25 12:24 52.87940 1.43765 37219 ft 466 kts 111°
2026-04-25 12:24 52.85642 1.53795 37229 ft 466 kts 111°
2026-04-25 12:25 52.83330 1.63833 37211 ft 467 kts 111°
2026-04-25 12:25 52.80997 1.73862 37207 ft 468 kts 111°
2026-04-25 12:26 52.78658 1.83898 37214 ft 468 kts 111°
2026-04-25 12:26 52.76325 1.93872 37217 ft 469 kts 112°
2026-04-25 12:27 52.73966 2.03904 37213 ft 469 kts 112°
2026-04-25 12:27 52.71598 2.13935 37211 ft 470 kts 112°
2026-04-25 12:28 52.69213 2.23969 37217 ft 470 kts 112°
2026-04-25 12:28 52.66817 2.33997 37220 ft 471 kts 112°
2026-04-25 12:29 52.64430 2.43960 37222 ft 471 kts 112°
2026-04-25 12:29 52.62018 2.53989 37230 ft 471 kts 112°
2026-04-25 12:30 52.59593 2.64014 37225 ft 472 kts 112°
2026-04-25 12:30 52.57152 2.74048 37225 ft 473 kts 112°
2026-04-25 12:31 52.54678 2.83986 37228 ft 473 kts 116°
2026-04-25 12:31 52.51554 2.93484 37231 ft 473 kts 120°
2026-04-25 12:32 52.48386 3.02946 37221 ft 473 kts 120°
2026-04-25 12:32 52.45210 3.12414 37224 ft 474 kts 120°
2026-04-25 12:33 52.42019 3.21879 37230 ft 475 kts 120°
2026-04-25 12:33 52.38839 3.31267 37237 ft 475 kts 120°
2026-04-25 12:34 52.35625 3.40718 37239 ft 475 kts 120°
2026-04-25 12:34 52.32393 3.50158 37249 ft 476 kts 120°
2026-04-25 12:35 52.29706 3.57995 37241 ft 476 kts 120°
2026-04-25 12:35 52.26465 3.67438 37239 ft 477 kts 120°
2026-04-25 12:36 52.22688 3.78402 37237 ft 477 kts 120°
2026-04-25 12:36 52.19953 3.86296 37234 ft 477 kts 120°
2026-04-25 12:37 52.16704 3.95627 37237 ft 477 kts 120°
2026-04-25 12:37 52.13425 4.05020 37231 ft 477 kts 120°
2026-04-25 12:38 52.10144 4.14412 37219 ft 478 kts 120°
2026-04-25 12:38 52.06846 4.23790 37222 ft 478 kts 120°
2026-04-25 12:39 52.03558 4.33109 37218 ft 478 kts 120°
2026-04-25 12:39 52.00263 4.42400 37225 ft 478 kts 120°
2026-04-25 12:40 51.96940 4.51730 37223 ft 478 kts 120°
2026-04-25 12:40 51.93616 4.61047 37216 ft 477 kts 121°
2026-04-25 12:41 51.90280 4.70349 37201 ft 477 kts 121°
2026-04-25 12:41 51.86972 4.79574 37208 ft 477 kts 121°
2026-04-25 12:42 51.83628 4.88855 37221 ft 478 kts 121°
2026-04-25 12:42 51.80266 4.98115 37214 ft 478 kts 121°
2026-04-25 12:43 51.76901 5.07373 37210 ft 478 kts 121°
2026-04-25 12:43 51.71832 5.21246 37212 ft 479 kts 121°
2026-04-25 12:44 51.68465 5.30433 37188 ft 479 kts 121°
2026-04-25 12:45 51.63365 5.44274 37203 ft 479 kts 121°
2026-04-25 12:45 51.58244 5.58090 37201 ft 479 kts 121°
2026-04-25 12:46 51.54850 5.67228 37196 ft 479 kts 121°
2026-04-25 12:46 51.51426 5.76419 37198 ft 479 kts 121°
2026-04-25 12:47 51.47986 5.85585 37200 ft 480 kts 121°
2026-04-25 12:47 51.44536 5.94749 37195 ft 480 kts 121°
2026-04-25 12:48 51.41083 6.03907 37182 ft 480 kts 121°
2026-04-25 12:48 51.37642 6.12982 37193 ft 480 kts 121°
2026-04-25 12:49 51.34177 6.22101 37209 ft 480 kts 121°
2026-04-25 12:49 51.30704 6.31210 37198 ft 480 kts 121°
2026-04-25 12:50 51.27219 6.40318 37193 ft 480 kts 121°
2026-04-25 12:50 51.23725 6.49398 37193 ft 480 kts 122°
2026-04-25 12:51 51.20219 6.58481 37194 ft 481 kts 122°
2026-04-25 12:51 51.16734 6.67498 37207 ft 481 kts 121°
2026-04-25 12:52 51.13215 6.76570 37181 ft 481 kts 122°
2026-04-25 12:52 51.09688 6.85611 37196 ft 481 kts 122°
2026-04-25 12:53 51.06156 6.94648 37203 ft 481 kts 122°
2026-04-25 12:53 51.02624 7.03672 36953 ft 480 kts 122°
2026-04-25 12:54 51.00861 7.08156 36681 ft 479 kts 122°
2026-04-25 12:54 50.99089 7.12648 36438 ft 480 kts 122°
2026-04-25 12:54 50.97314 7.17138 36183 ft 481 kts 122°
2026-04-25 12:54 50.95538 7.21632 35926 ft 481 kts 122°
2026-04-25 12:55 50.93779 7.26071 35678 ft 482 kts 122°
2026-04-25 12:55 50.92571 7.29110 35515 ft 483 kts 122°
2026-04-25 12:55 50.90197 7.35072 35186 ft 483 kts 122°
2026-04-25 12:55 50.88401 7.39576 34931 ft 484 kts 122°
2026-04-25 12:56 50.86605 7.44083 34688 ft 484 kts 122°
2026-04-25 12:56 50.84806 7.48593 34446 ft 485 kts 122°
2026-04-25 12:56 50.83003 7.53104 34200 ft 485 kts 122°
2026-04-25 12:56 50.81191 7.57615 33933 ft 486 kts 122°
2026-04-25 12:57 50.79375 7.62121 33663 ft 487 kts 122°
2026-04-25 12:57 50.77555 7.66638 33404 ft 487 kts 122°
2026-04-25 12:57 50.75758 7.71094 33259 ft 488 kts 122°
2026-04-25 12:57 50.73932 7.75621 33120 ft 489 kts 122°
2026-04-25 12:58 50.72106 7.80143 32988 ft 489 kts 122°
2026-04-25 12:58 50.70277 7.84660 32853 ft 489 kts 122°
2026-04-25 12:58 50.68444 7.89180 32717 ft 489 kts 122°
2026-04-25 12:58 50.66606 7.93699 32582 ft 490 kts 122°
2026-04-25 12:59 50.64762 7.98217 32467 ft 490 kts 122°
2026-04-25 12:59 50.62915 8.02727 32332 ft 490 kts 123°
2026-04-25 12:59 50.60844 8.06991 32203 ft 491 kts 131°
2026-04-25 12:59 50.58409 8.10742 32062 ft 490 kts 140°
2026-04-25 13:00 50.55708 8.13881 31933 ft 490 kts 148°
2026-04-25 13:00 50.53766 8.15823 31848 ft 490 kts 148°
2026-04-25 13:00 50.49957 8.19636 31670 ft 490 kts 148°
2026-04-25 13:00 50.47085 8.22521 31545 ft 491 kts 148°
2026-04-25 13:01 50.44209 8.25414 31424 ft 491 kts 148°
2026-04-25 13:01 50.41330 8.28303 31285 ft 491 kts 148°
2026-04-25 13:01 50.38447 8.31187 31086 ft 492 kts 148°
2026-04-25 13:01 50.35569 8.34058 31131 ft 492 kts 148°
2026-04-25 13:02 50.29786 8.39804 31120 ft 492 kts 148°
2026-04-25 13:02 50.24040 8.45490 31115 ft 492 kts 148°
2026-04-25 13:03 50.18244 8.51159 31112 ft 492 kts 148°
2026-04-25 13:03 50.12437 8.56806 31110 ft 492 kts 148°
2026-04-25 13:04 50.06484 8.62011 31100 ft 490 kts 159°
2026-04-25 13:04 49.99928 8.64638 31102 ft 486 kts 175°
2026-04-25 13:05 49.93191 8.65750 30847 ft 487 kts 176°
2026-04-25 13:05 49.89823 8.66312 30609 ft 487 kts 175°
2026-04-25 13:05 49.86445 8.66876 30353 ft 488 kts 175°
2026-04-25 13:06 49.83109 8.67430 30106 ft 490 kts 175°
2026-04-25 13:06 49.79717 8.67993 29819 ft 490 kts 175°
2026-04-25 13:06 49.76323 8.68559 29540 ft 490 kts 175°
2026-04-25 13:06 49.72980 8.68820 29266 ft 488 kts 183°
2026-04-25 13:07 49.69548 8.68441 28982 ft 487 kts 187°
2026-04-25 13:07 49.66170 8.67976 28712 ft 487 kts 187°
2026-04-25 13:07 49.62795 8.67518 28436 ft 487 kts 187°
2026-04-25 13:07 49.59420 8.67068 28162 ft 487 kts 187°
2026-04-25 13:08 49.56050 8.66618 27897 ft 486 kts 187°
2026-04-25 13:08 49.52728 8.66179 27631 ft 472 kts 187°
2026-04-25 13:08 49.49479 8.65754 27369 ft 465 kts 187°
2026-04-25 13:08 49.46268 8.65335 27111 ft 461 kts 187°
2026-04-25 13:09 49.43082 8.64915 26862 ft 458 kts 187°
2026-04-25 13:09 49.39910 8.64493 26593 ft 456 kts 187°
2026-04-25 13:09 49.36763 8.64071 26343 ft 453 kts 188°
2026-04-25 13:09 49.33671 8.63655 26094 ft 451 kts 188°
2026-04-25 13:10 49.30555 8.63224 25622 ft 447 kts 188°
2026-04-25 13:10 49.27487 8.62761 25140 ft 439 kts 189°
2026-04-25 13:10 49.24479 8.62288 24667 ft 431 kts 189°
2026-04-25 13:10 49.21520 8.61817 24227 ft 424 kts 189°
2026-04-25 13:11 49.18616 8.61357 23796 ft 416 kts 189°
2026-04-25 13:11 49.15761 8.60911 23326 ft 408 kts 189°
2026-04-25 13:11 49.12957 8.60481 22830 ft 403 kts 189°
2026-04-25 13:11 49.10187 8.60064 22343 ft 397 kts 189°
2026-04-25 13:12 49.07452 8.59654 21862 ft 392 kts 189°
2026-04-25 13:12 49.04751 8.59247 21396 ft 388 kts 189°
2026-04-25 13:12 49.02077 8.58846 20935 ft 384 kts 188°
2026-04-25 13:12 49.00320 8.58613 20636 ft 383 kts 186°
2026-04-25 13:13 48.96806 8.58707 20032 ft 380 kts 178°
2026-04-25 13:13 48.94182 8.59075 19593 ft 379 kts 173°
2026-04-25 13:13 48.91634 8.60101 19104 ft 380 kts 160°
2026-04-25 13:13 48.89301 8.61991 18589 ft 382 kts 146°
2026-04-25 13:14 48.87307 8.64665 18027 ft 384 kts 131°
2026-04-25 13:14 48.85768 8.67964 17439 ft 383 kts 118°
2026-04-25 13:14 48.84776 8.71709 16863 ft 382 kts 102°
2026-04-25 13:14 48.84617 8.75698 16298 ft 379 kts 81°
2026-04-25 13:15 48.85152 8.79566 15742 ft 369 kts 74°
2026-04-25 13:15 48.85772 8.83294 15197 ft 360 kts 74°
2026-04-25 13:15 48.86385 8.86931 14670 ft 351 kts 74°
2026-04-25 13:15 48.86986 8.90489 14132 ft 344 kts 74°
2026-04-25 13:16 48.87607 8.93914 13594 ft 337 kts 67°
2026-04-25 13:16 48.88791 8.96879 13015 ft 325 kts 44°
2026-04-25 13:16 48.90595 8.98826 12446 ft 315 kts 20°
2026-04-25 13:16 48.92697 8.99461 11888 ft 305 kts 355°
2026-04-25 13:17 48.94712 8.98712 11336 ft 297 kts 330°
2026-04-25 13:17 48.96275 8.96755 10813 ft 290 kts 306°
2026-04-25 13:17 48.97089 8.93999 10286 ft 287 kts 281°
2026-04-25 13:17 48.97005 8.91002 9738 ft 286 kts 255°
2026-04-25 13:18 48.96045 8.88389 9152 ft 286 kts 228°
2026-04-25 13:18 48.94432 8.86722 8587 ft 287 kts 202°
2026-04-25 13:18 48.92510 8.85940 8032 ft 285 kts 194°
2026-04-25 13:18 48.90599 8.85332 7631 ft 275 kts 194°
2026-04-25 13:19 48.88759 8.84769 7257 ft 265 kts 194°
2026-04-25 13:19 48.86975 8.84342 6894 ft 257 kts 182°
2026-04-25 13:19 48.85228 8.84581 6558 ft 248 kts 174°
2026-04-25 13:19 48.84107 8.84831 6324 ft 244 kts 174°
2026-04-25 13:20 48.81895 8.85357 5842 ft 238 kts 173°
2026-04-25 13:20 48.80273 8.85728 5484 ft 233 kts 173°
2026-04-25 13:20 48.78679 8.86064 5130 ft 230 kts 173°
2026-04-25 13:20 48.77106 8.86381 4838 ft 226 kts 174°
2026-04-25 13:21 48.75596 8.86687 4581 ft 218 kts 174°
2026-04-25 13:21 48.74107 8.86994 4311 ft 212 kts 174°
2026-04-25 13:21 48.72685 8.87296 4107 ft 203 kts 174°
2026-04-25 13:21 48.71299 8.87588 4012 ft 199 kts 173°
2026-04-25 13:22 48.69931 8.87862 4017 ft 199 kts 174°
2026-04-25 13:22 48.68560 8.88139 4003 ft 199 kts 174°
2026-04-25 13:22 48.67192 8.88414 4020 ft 198 kts 174°
2026-04-25 13:23 48.65208 8.90648 4010 ft 175 kts 110°
2026-04-25 13:23 48.64841 8.92330 4015 ft 163 kts 104°
2026-04-25 13:23 48.64530 8.93988 4022 ft 163 kts 104°
2026-04-25 13:23 48.64237 8.95606 4019 ft 161 kts 104°
2026-04-25 13:24 48.64108 8.97261 4028 ft 158 kts 74°
2026-04-25 13:24 48.64497 8.98809 4013 ft 158 kts 72°
2026-04-25 13:24 48.64779 9.00416 4022 ft 159 kts 72°
2026-04-25 13:24 48.65087 9.02036 3785 ft 159 kts 70°
2026-04-25 13:25 48.65398 9.03620 3561 ft 156 kts 70°
2026-04-25 13:25 48.65706 9.05190 3365 ft 155 kts 72°
2026-04-25 13:25 48.66013 9.06757 3146 ft 155 kts 71°
2026-04-25 13:25 48.66319 9.08314 2927 ft 155 kts 71°
2026-04-25 13:26 48.66623 9.09872 2729 ft 154 kts 72°
2026-04-25 13:26 48.66924 9.11430 2508 ft 153 kts 73°
2026-04-25 13:26 48.67214 9.12941 2334 ft 150 kts 72°
2026-04-25 13:26 48.67503 9.14449 2131 ft 147 kts 71°
2026-04-25 13:27 48.67788 9.15950 1949 ft 149 kts 70°
2026-04-25 13:27 48.68072 9.17460 1719 ft 149 kts 71°
2026-04-25 13:27 48.68362 9.18969 1511 ft 149 kts 70°
2026-04-25 13:27 48.68657 9.20461 1306 ft 148 kts 70°
2026-04-25 13:28 48.68922 9.21827 1254 ft 116 kts 74°
2026-04-25 13:28 48.68986 9.22183 1241 ft 100 kts 75°
2026-04-25 13:28 48.69186 9.23242 1212 ft 23 kts 73°
2026-04-25 13:28 48.69239 9.23457 1208 ft 23 kts 62°
2026-04-25 13:29 48.69321 9.23606 1204 ft 11 kts 44°
2026-04-25 13:29 48.69357 9.23658 1204 ft 6 kts 44°
2026-04-25 13:29 48.69381 9.23693 1205 ft 3 kts 43°
2026-04-25 13:30 48.69428 9.23747 1206 ft 7 kts 23°
2026-04-25 13:30 48.69484 9.23736 1208 ft 8 kts 332°
2026-04-25 13:30 48.69518 9.23666 1212 ft 11 kts 284°
2026-04-25 13:31 48.69477 9.23401 1217 ft 12 kts 253°
2026-04-25 13:31 48.69455 9.23286 1220 ft 11 kts 254°
2026-04-25 13:31 48.69428 9.23144 1223 ft 17 kts 253°
2026-04-25 13:31 48.69395 9.22974 1226 ft 17 kts 253°
2026-04-25 13:32 48.69364 9.22805 1230 ft 16 kts 255°
2026-04-25 13:32 48.69333 9.22640 1233 ft 16 kts 254°
2026-04-25 13:32 48.69302 9.22477 1248 ft 16 kts 254°
2026-04-25 13:32 48.69272 9.22319 1246 ft 15 kts 254°
2026-04-25 13:33 48.69243 9.22166 1254 ft 15 kts 254°
2026-04-25 13:33 48.69216 9.22020 1255 ft 14 kts 254°
2026-04-25 13:33 48.69189 9.21881 1257 ft 13 kts 254°
2026-04-25 13:33 48.69165 9.21756 1253 ft 12 kts 254°
2026-04-25 13:34 48.69144 9.21643 1261 ft 13 kts 254°
2026-04-25 13:34 48.69114 9.21483 1261 ft 19 kts 254°
2026-04-25 13:34 48.69076 9.21282 1274 ft 20 kts 253°
2026-04-25 13:34 48.69039 9.21087 1269 ft 19 kts 254°
2026-04-25 13:35 48.69003 9.20897 1276 ft 18 kts 254°
2026-04-25 13:35 48.68968 9.20713 1278 ft 18 kts 254°
2026-04-25 13:35 48.68934 9.20535 1282 ft 17 kts 253°
2026-04-25 13:35 48.68902 9.20367 1287 ft 16 kts 254°
2026-04-25 13:36 48.68872 9.20208 1291 ft 15 kts 254°
2026-04-25 13:36 48.68843 9.20057 1294 ft 12 kts 253°
2026-04-25 13:36 48.68818 9.19973 1295 ft 7 kts 251°
2026-04-25 13:36 48.68820 9.19920 1297 ft 5 kts 294°
2026-04-25 13:37 48.68854 9.19890 1300 ft 7 kts 343°
2026-04-25 13:37 48.68890 9.19851 1303 ft 8 kts 294°
2026-04-25 13:37 48.68878 9.19757 1306 ft 8 kts 253°
2026-04-25 13:37 48.68868 9.19697 1308 ft 4 kts 261°
2026-04-25 13:38 48.68879 9.19675 1309 ft 2 kts 325°
2026-04-25 13:38 48.68902 9.19663 1311 ft 5 kts 342°
2026-04-25 13:38 48.68923 9.19653 1313 ft 2 kts 343°
2026-04-25 13:38 48.68935 9.19648 1314 ft 2 kts 344°
2026-04-25 13:39 48.68943 9.19645 1315 ft 0 kts 344°